User: anonymous   Login
Location: Muenchen
(48.1800°N, 11.5800°E)
Time: 03:46:31
(UTC+02:00)
Language:

Sich 1 Rocket - Orbit

View from above orbital plane
View from above orbital plane
View from above satellite
View from above satellite

Ground track
Ground track

The orbit data is extracted from the following two-line orbital elements,

1 23659U 95046C   15116.15710612  .00000465  00000-0  60997-4 0  9996
2 23659 082.5283 311.9152 0024280 275.3945 217.0361 14.78032226 58871
Epoch (UTC): 26 April 2015 03:46:13
Eccentricity: 0.0024280
inclination: 82.5283°
perigee height: 618 km
apogee height: 652 km
right ascension of ascending node: 311.9152°
argument of perigee: 275.3945°
revolutions per day: 14.78032226
mean anomaly at epoch: 217.0361°
orbit number at epoch: 5887

The dashed part of the orbit path shows where the satellite is in the earth's shadow,  

DLR